Location: North Bay Shore
(40.7362°N, 73.2626°W)
Time: 10:18:43
(UTC+00:00)

Cosmos 1992 Rocket - Pass Details

Date: 29 October 2020
Orbit: 759 x 765 km, 74.0° (Epoch: 23 November)

Event Time Altitude Azimuth Distance (km) Brightness Sun altitude
Rises 22:30:18 0° 176° (S) 3,204 7.3 -7.8°
Reaches altitude 10° 22:32:47 10° 168° (SSE) 2,282 6.5 -8.2°
Maximum altitude 22:37:32 38° 102° (ESE) 1,149 4.5 -9.1°
Drops below altitude 10° 22:42:19 10° 35° (NE) 2,296 6.1 -10.0°
Sets 22:44:49 0° 28° (NNE) 3,226 6.9 -10.5°
